GEFSCGP_850_meantemp_174.txt.gz
Temperature
7 8 8 9 9 10 10 10 11 12 13 12 12 13 14 15 15 15 16 16 16 16 16 16 15 15 14 14 14 14 13 13 13 12 12 12 12 12 12 11 11 11 11 11
8 8 9 10 9 9 9 9 10 11 12 12 12 13 14 15 15 15 16 16 16 16 16 15 15 15 14 14 14 14 14 13 13 13 13 12 12 12 12 11 11 11 11 11
8 9 9 9 8 8 9 9 10 10 11 12 12 12 14 15 15 15 15 16 16 16 16 16 15 15 15 14 14 14 14 14 13 13 12 12 12 12 11 11 11 11 11 11
8 8 8 8 8 9 9 10 10 10 10 10 11 11 14 15 15 15 16 16 16 16 16 15 15 15 15 15 15 15 14 14 13 13 12 12 12 12 12 12 12 12 12 11
8 8 8 8 9 9 9 9 9 9 9 9 10 11 13 14 14 15 16 16 15 15 15 15 15 15 15 15 15 15 14 14 13 13 13 12 12 12 12 12 12 12 12 12
8 8 8 8 9 9 9 9 9 9 9 9 11 11 12 14 14 15 15 15 15 14 14 15 15 15 15 15 15 14 14 14 14 13 13 12 12 12 12 12 12 12 12 12
7 8 8 8 8 8 8 8 8 8 9 10 12 11 12 14 14 14 14 14 14 13 13 13 14 14 14 15 15 14 14 14 14 13 13 13 13 12 12 13 13 13 13 13
7 8 8 8 8 8 8 8 8 8 9 11 11 11 13 13 13 13 13 13 13 13 13 13 13 13 14 14 15 14 14 14 14 13 13 13 13 12 12 12 13 13 13 14
6 7 8 8 8 8 7 8 8 8 8 9 10 11 12 12 13 13 12 12 12 12 12 12 12 12 13 13 14 14 14 14 14 14 14 13 13 13 13 13 13 13 13 14
5 5 7 7 7 8 8 8 8 7 8 9 11 11 12 12 12 12 12 12 11 11 11 11 11 12 12 13 13 14 14 14 14 14 14 14 13 13 13 13 13 13 13 13
5 4 6 6 6 7 7 7 7 7 8 9 10 12 12 11 11 11 11 11 10 10 10 10 11 11 12 12 13 13 13 14 13 14 14 13 14 14 13 13 13 13 13 13
5 5 5 6 7 7 7 7 7 7 7 8 9 10 11 11 11 10 10 10 9 9 9 10 10 11 11 11 12 12 13 13 13 13 13 13 14 13 13 13 13 13 13 13
4 4 4 6 6 5 5 6 6 6 6 7 8 10 11 10 10 10 10 9 9 9 9 9 9 10 10 11 11 12 12 13 13 13 13 13 13 13 13 13 13 13 13 13
4 3 4 5 6 5 4 5 5 5 5 6 8 9 10 10 10 10 9 9 8 8 8 8 8 9 9 10 10 11 11 12 12 13 13 13 13 13 13 13 13 13 13 12
4 3 4 4 5 5 4 5 5 4 5 6 7 8 9 9 9 9 8 8 8 8 7 7 7 8 8 9 9 10 11 11 12 12 12 13 13 13 12 12 12 12 12 12
3 3 3 3 4 4 4 5 5 5 5 5 6 7 8 8 8 8 8 7 7 7 7 6 6 7 7 8 8 9 10 10 11 11 12 12 12 12 12 12 12 12 12 12
2 2 2 4 4 3 4 5 5 5 6 6 6 7 8 7 7 7 7 6 6 6 6 6 6 6 6 7 8 8 9 9 10 10 11 11 12 12 12 12 12 11 12 12
2 2 2 3 3 2 6 6 6 6 6 6 6 7 7 7 7 6 6 6 6 6 6 6 6 6 6 6 7 7 8 8 9 9 10 11 11 11 11 11 11 11 11 11
2 2 2 2 3 4 5 6 5 5 5 6 6 6 6 6 6 6 5 5 5 5 5 5 5 6 6 6 6 7 7 8 8 9 9 10 10 10 11 11 11 11 11 11
2 2 2 2 2 3 6 5 5 5 5 5 5 5 5 5 5 6 5 4 4 5 5 5 5 5 6 6 6 6 7 7 8 8 9 10 10 10 10 10 10 10 10 10
1 1 1 2 2 4 5 5 4 4 5 5 5 5 4 5 5 5 4 4 4 4 4 5 5 5 5 5 5 6 6 7 7 8 8 9 9 10 10 10 10 10 10 10
2 2 1 2 1 3 5 4 4 4 5 4 4 4 4 4 4 3 3 3 4 4 4 4 5 5 5 5 5 5 6 6 7 7 8 8 9 9 9 9 9 9 9 9
2 3 3 3 4 5 4 4 4 4 4 4 4 3 3 3 3 3 3 3 3 3 4 4 4 4 5 5 5 5 5 6 7 7 8 8 8 9 9 8 9 9 9 9
3 3 2 3 4 4 4 3 3 3 3 3 3 3 3 3 3 3 3 3 3 3 3 3 4 4 4 4 5 5 5 6 6 7 7 8 8 8 8 8 8 8 8 8
3 2 2 2 4 4 3 3 3 3 3 2 2 2 2 2 2 2 2 2 2 2 3 3 3 3 4 4 4 4 5 5 5 6 7 7 7 7 8 8 8 8 8 8
3 2 2 3 4 4 4 3 3 2 2 2 2 2 1 1 1 1 2 2 2 2 2 2 2 3 3 3 4 4 4 5 5 5 6 6 7 7 7 7 7 7 8 8

GEFSCGP_850_meantemp_180.txt.gz
Temperature
10 9 8 9 10 10 10 10 10 11 12 12 11 12 13 14 14 15 15 16 16 17 17 16 17 16 16 16 15 15 15 14 14 14 13 13 13 13 12 12 12 12 12 12
9 8 10 11 10 10 10 9 9 11 12 12 11 12 13 14 14 14 15 16 16 17 17 16 16 16 16 16 15 15 15 14 14 14 14 14 13 13 13 12 12 12 12 12
9 10 11 10 10 10 9 9 10 10 11 11 11 11 12 13 14 15 15 15 16 16 16 16 16 16 15 15 15 15 15 14 14 14 13 13 13 12 12 12 12 12 12 11
9 10 10 10 10 10 9 10 10 10 9 9 10 9 11 12 13 14 14 14 15 15 16 16 16 15 15 15 15 15 14 14 14 13 13 13 13 13 13 13 12 12 12 11
9 10 10 9 10 10 9 10 10 9 9 8 9 9 10 13 13 13 13 14 14 15 15 15 15 15 15 15 15 14 14 14 13 13 13 13 13 13 13 13 12 12 12 11
9 10 10 10 10 10 10 9 9 9 8 8 9 9 10 12 13 13 14 14 14 14 14 14 14 15 14 14 14 14 14 13 13 13 13 13 13 12 12 12 12 12 12 12
9 10 10 10 9 9 9 8 7 7 7 8 11 11 11 12 13 13 13 13 14 13 13 13 13 13 14 13 13 13 13 13 13 13 13 13 13 12 12 12 12 12 12 12
7 8 10 10 9 8 8 8 7 7 7 9 10 10 11 13 13 14 13 13 13 13 13 13 13 13 13 13 13 13 13 13 13 13 13 13 12 12 12 12 12 12 12 12
7 7 10 10 10 9 8 7 8 7 7 7 9 10 11 13 12 12 12 12 11 12 12 12 12 12 12 12 12 12 12 12 12 13 13 13 12 12 12 12 12 12 12 12
7 6 8 9 9 9 8 8 7 6 6 7 9 10 10 10 11 11 11 10 11 11 11 11 11 11 11 11 12 12 12 12 12 12 12 12 12 12 12 12 12 12 12 11
6 5 6 8 7 7 7 7 7 6 6 6 7 9 11 10 10 10 10 11 11 10 10 10 11 11 11 11 11 11 11 11 11 12 12 12 12 12 12 12 12 12 12 12
6 5 4 6 8 8 7 7 6 5 5 6 6 8 11 10 10 10 10 10 10 10 10 10 10 10 10 10 10 10 11 11 11 11 11 11 12 12 11 12 12 12 12 12
5 4 4 5 6 7 6 6 6 6 5 5 6 8 10 9 9 10 10 10 9 9 9 9 9 9 9 10 10 10 10 10 10 11 11 11 11 11 11 11 12 12 12 12
6 3 3 4 5 5 5 5 5 5 4 5 6 7 8 9 9 9 9 9 9 9 9 8 8 8 9 9 9 9 9 9 10 10 10 11 11 11 11 11 11 11 11 11
4 3 3 4 5 5 5 5 5 4 4 5 6 7 8 8 8 8 9 9 9 8 8 8 7 7 8 8 8 8 9 9 9 9 10 10 10 11 11 11 11 11 11 11
3 3 3 3 5 5 5 6 6 5 5 5 6 6 7 8 8 8 8 8 8 8 7 7 7 7 7 7 7 7 8 8 8 9 9 9 10 10 11 11 11 11 11 11
3 2 2 3 5 4 4 5 6 6 6 6 5 6 7 7 7 7 7 7 7 7 6 6 6 6 6 6 7 7 7 7 8 8 8 9 9 10 10 10 10 10 10 11
2 2 2 2 3 2 4 7 7 7 7 7 6 6 7 7 7 7 7 7 6 6 6 6 6 6 6 6 6 6 6 7 7 7 7 8 8 9 9 10 10 10 10 10
3 2 2 2 2 3 5 7 7 6 5 6 6 6 6 6 6 6 6 6 6 5 5 5 5 5 5 5 6 6 6 6 6 6 7 7 8 8 8 9 9 9 10 10
3 2 1 1 1 2 5 6 7 6 4 5 5 5 5 5 3 4 5 5 5 5 5 5 5 5 5 5 5 5 5 5 6 6 6 6 7 7 8 8 9 9 9 9
2 1 1 1 1 2 5 6 6 3 3 5 5 5 5 4 4 5 5 5 5 4 4 4 4 4 5 5 5 5 5 5 5 5 6 6 6 7 7 7 8 8 8 9
2 1 1 1 1 2 5 5 4 3 5 5 5 5 5 5 4 4 4 4 4 4 4 4 4 4 4 4 4 4 4 4 5 5 5 5 6 6 7 7 7 8 8 8
3 3 2 2 3 5 6 5 5 5 5 5 5 4 4 4 4 4 4 4 4 4 3 3 3 4 4 4 4 4 4 4 4 4 5 5 5 5 6 6 7 7 7 7
3 4 3 3 3 5 6 6 5 5 5 5 4 4 4 3 3 3 3 3 3 3 3 3 3 3 3 3 3 3 3 4 4 4 4 4 4 5 5 6 6 6 7 7
3 3 2 2 3 4 5 5 5 5 4 4 4 4 3 3 3 3 3 3 3 3 2 2 2 2 2 3 3 3 3 3 3 3 3 4 4 4 5 5 6 6 6 6
3 3 2 2 3 3 4 5 4 4 4 4 3 3 3 3 2 2 2 2 2 2 2 2 2 2 2 2 2 2 2 2 3 3 3 3 3 4 4 5 5 5 6 6

GEFSCGP_850_meantemp_186.txt.gz
Temperature
7 6 5 6 6 7 7 7 6 7 9 8 8 9 9 10 10 10 10 11 11 12 13 13 13 13 13 14 14 14 14 14 14 13 13 13 13 13 13 13 13 13 13 12
6 5 7 7 7 7 7 6 6 7 9 9 8 9 9 9 10 10 10 10 11 12 12 12 13 13 13 13 13 13 13 13 13 13 13 13 13 13 13 13 12 12 12 12
6 7 8 8 7 7 7 6 7 7 8 8 7 8 8 9 10 10 10 11 11 11 11 12 12 12 13 13 13 13 13 13 13 13 13 13 12 12 12 12 12 12 12 12
6 7 8 7 7 7 6 7 8 8 7 6 7 7 7 8 9 9 9 10 11 11 11 12 12 12 12 13 13 12 13 13 13 13 13 12 12 12 13 12 12 12 12 12
6 7 7 7 7 8 7 8 8 7 6 5 6 6 7 8 8 9 9 10 10 11 11 11 12 12 12 12 12 12 13 12 12 13 13 13 12 12 12 12 12 12 12 12
6 7 7 7 8 8 7 7 6 5 5 5 6 6 6 7 8 9 9 10 10 11 11 11 11 12 12 12 12 12 12 12 12 12 12 12 12 12 12 12 12 12 12 11
5 6 7 8 7 7 7 5 5 4 4 5 6 6 7 7 8 8 9 9 10 10 10 11 11 11 11 11 11 11 11 11 12 12 12 12 12 12 12 12 12 12 12 11
4 5 6 7 7 6 6 5 5 4 4 5 6 6 7 8 8 9 9 9 9 10 10 10 10 10 10 10 11 11 11 11 11 11 11 12 11 12 12 12 12 12 12 12
4 5 6 7 7 7 6 5 5 4 4 4 5 6 6 8 7 7 8 8 9 9 9 9 10 10 10 10 10 10 10 11 11 11 11 11 11 11 11 11 12 12 12 12
4 4 5 6 7 7 6 5 4 4 4 4 5 5 6 6 7 7 7 7 8 8 9 9 9 9 9 10 10 10 10 10 10 11 11 10 11 11 11 11 11 11 11 11
4 3 4 4 5 5 5 5 4 3 3 4 4 6 7 6 6 6 6 7 8 8 8 8 9 9 9 9 9 9 10 10 10 10 10 10 10 10 11 11 11 11 11 11
4 3 2 3 4 5 5 5 4 3 3 3 3 5 7 6 6 6 6 7 8 8 8 8 8 8 8 8 9 9 9 9 9 9 10 10 10 10 10 10 11 11 11 11
4 2 2 3 3 4 4 4 4 3 3 3 3 5 7 5 6 6 6 7 7 7 7 7 8 8 8 8 8 8 8 8 9 9 9 9 9 9 10 10 10 10 10 11
5 2 2 3 3 2 2 3 3 3 3 3 3 4 5 6 6 6 6 6 6 6 7 7 7 7 7 7 7 8 8 8 8 8 8 8 9 9 9 10 10 10 10 10
3 2 1 2 3 3 3 3 3 2 2 3 4 4 5 5 5 5 5 6 6 6 6 6 6 6 7 7 7 7 7 7 7 7 7 8 8 8 9 9 9 9 10 10
2 2 1 1 2 3 3 3 3 3 3 3 3 4 5 5 5 4 5 5 5 5 5 5 5 6 6 6 6 6 7 7 7 7 7 7 7 8 8 8 9 9 9 9
1 1 1 1 2 1 2 3 3 3 3 3 3 4 4 4 4 4 4 5 4 5 5 5 5 5 5 5 6 6 6 6 6 7 6 6 6 7 7 8 8 8 8 9
1 1 1 1 0 0 3 3 4 4 4 4 4 4 4 4 4 5 5 5 4 4 4 4 4 4 5 5 5 5 6 6 6 6 6 6 6 6 6 7 7 8 8 8
1 1 1 0 -0 0 2 3 3 3 3 4 3 4 4 4 4 4 5 5 5 4 4 4 4 4 4 4 4 5 5 5 5 5 5 6 6 6 6 6 7 7 7 8
1 1 1 -0 -0 1 2 3 4 4 2 3 3 3 3 3 2 2 5 4 4 4 4 4 4 4 4 4 4 4 4 5 5 5 5 5 5 5 5 6 6 6 7 7
-0 -0 0 -0 0 1 2 3 4 2 2 3 4 3 3 2 3 4 4 4 4 4 4 4 3 3 3 4 4 4 4 4 4 4 5 5 5 5 5 5 6 6 6 6
-0 -1 -1 -1 -0 1 3 2 2 2 4 4 4 4 4 4 4 4 3 3 3 3 3 3 3 3 3 3 3 3 3 3 4 4 4 4 4 4 5 5 5 5 5 6
0 1 0 0 2 2 3 3 4 5 4 4 4 4 4 3 3 3 3 3 3 3 3 3 3 3 3 3 3 3 3 3 3 3 3 4 4 4 4 4 4 5 5 5
-0 0 -0 -0 1 1 3 4 4 4 4 4 4 4 3 3 3 3 3 3 3 2 2 2 2 2 2 2 2 2 2 2 2 3 3 3 3 3 3 4 4 4 4 5
0 -0 -0 -0 1 1 2 3 4 4 4 4 3 3 3 3 3 2 2 2 2 2 2 2 1 1 2 2 2 2 2 2 2 2 2 2 2 3 3 3 3 3 4 4
-0 0 0 1 1 1 1 3 3 3 3 3 3 3 3 2 2 2 2 2 1 1 1 1 1 1 1 1 1 1 1 1 1 1 1 2 2 2 2 2 3 3 3 4

GEFSCGP_850_meantemp_192.txt.gz
Temperature
6 5 5 5 5 6 6 6 5 6 7 7 6 7 8 8 8 8 9 9 9 10 11 11 11 11 11 11 12 12 12 12 12 12 12 12 12 12 13 13 13 13 12 12
5 5 6 6 6 6 6 5 5 6 7 7 6 6 7 7 7 8 8 9 9 9 10 10 11 11 11 11 11 11 11 11 12 12 12 11 12 12 13 13 12 12 12 12
6 6 7 7 6 6 5 5 5 6 6 6 6 6 7 7 8 8 8 9 9 9 9 10 10 11 11 11 11 11 11 11 11 11 11 11 11 11 12 12 12 12 12 12
5 6 6 6 6 6 6 6 6 6 5 4 5 5 6 6 6 7 7 8 9 9 9 10 10 10 11 11 11 11 11 11 11 11 11 10 10 11 11 12 12 12 12 12
5 6 6 6 6 6 6 6 6 5 5 4 4 4 5 6 6 7 7 8 8 9 9 9 10 10 10 10 10 11 11 11 10 10 10 10 10 10 11 11 11 12 12 12
5 6 6 6 6 6 6 5 5 4 3 4 4 4 5 5 6 7 7 8 8 8 9 9 9 9 10 10 10 10 10 10 10 10 10 10 10 10 10 10 11 11 11 11
5 5 6 6 6 6 5 5 4 4 3 4 5 4 5 6 6 6 6 7 8 8 8 9 9 9 9 9 9 10 10 10 10 10 10 10 10 10 10 10 10 10 10 11
4 5 5 5 6 5 5 5 4 4 4 4 4 5 5 6 6 6 7 7 7 8 8 8 8 8 9 9 9 9 9 9 9 9 9 9 9 9 9 10 10 10 10 10
4 4 5 5 6 6 5 4 4 4 3 3 4 4 4 6 5 5 6 6 6 7 7 8 8 8 8 8 8 9 9 9 9 9 9 9 9 9 9 9 9 9 10 10
4 4 4 4 5 5 5 4 3 3 3 3 4 3 4 5 5 5 5 5 6 7 7 7 7 7 8 8 8 8 8 8 9 9 8 8 9 9 9 9 9 9 10 10
3 3 3 4 4 4 4 4 3 3 3 3 4 5 5 5 5 5 4 5 6 6 7 7 7 7 7 8 8 8 8 8 8 8 8 8 8 9 9 9 9 9 9 10
3 2 2 2 3 4 4 3 3 3 2 2 2 5 6 5 4 4 4 5 6 6 6 6 6 7 7 7 7 7 7 7 7 7 7 7 8 8 8 8 8 9 9 9
3 2 2 3 3 2 2 2 2 2 2 2 3 5 5 4 4 4 5 5 5 6 6 6 6 6 6 6 6 7 7 7 7 7 7 7 7 7 7 8 8 8 8 8
4 1 2 3 3 2 1 2 2 2 2 2 2 4 5 5 4 4 5 5 5 5 5 5 5 5 6 6 6 6 6 6 6 6 6 6 7 7 7 7 7 7 8 8
3 2 1 1 2 2 2 2 2 2 2 2 3 3 4 4 4 4 4 4 4 4 4 5 5 5 5 5 6 6 6 6 6 6 6 6 6 6 6 7 7 7 7 7
1 1 1 1 2 1 2 2 2 2 2 2 2 3 4 4 4 3 4 3 3 4 4 4 4 5 5 5 5 5 5 5 5 5 5 6 5 5 6 6 6 6 6 7
1 1 1 1 1 1 1 2 2 2 2 2 2 3 3 3 3 3 3 3 3 4 4 4 4 4 4 4 4 5 5 5 5 5 5 5 5 5 5 5 5 6 6 6
1 0 1 0 -0 0 2 2 2 2 2 2 2 3 2 3 3 3 4 4 4 4 4 4 4 4 4 4 4 4 4 5 5 4 4 5 5 5 5 5 5 5 5 6
1 1 1 0 -0 0 1 2 2 1 2 2 2 2 2 3 2 3 4 4 4 4 3 4 3 3 3 4 4 4 4 4 4 4 4 4 4 4 4 5 5 5 5 5
0 1 1 0 0 0 2 3 2 2 1 2 2 2 2 1 1 2 4 4 4 4 3 3 3 3 3 3 3 3 3 3 3 4 4 4 4 4 4 4 4 4 4 5
-1 -0 0 0 0 1 2 2 2 1 2 3 2 2 2 1 2 3 3 3 3 3 3 3 3 3 3 3 3 2 3 3 3 3 3 3 3 4 4 4 4 4 4 4
-1 -1 -1 -0 0 1 2 1 1 2 3 3 3 3 3 3 3 3 3 3 3 3 3 2 2 2 2 2 2 2 2 2 2 2 3 3 3 3 3 3 3 3 3 3
-0 0 -0 0 2 2 2 3 4 4 3 4 4 4 3 3 3 3 2 2 2 2 2 2 2 2 2 2 2 1 2 2 2 2 2 2 3 3 3 3 3 3 3 3
-2 -1 -1 -1 -0 0 2 3 3 3 3 4 3 3 3 2 2 2 2 2 2 2 2 2 1 1 1 1 1 1 1 1 1 1 2 2 2 2 2 2 2 2 2 2
-1 -2 -2 -1 -1 -0 2 3 3 3 3 3 3 2 2 2 2 2 2 2 1 1 1 1 1 1 1 1 1 1 1 1 1 1 1 1 1 1 2 2 2 2 2 2
-2 -1 -1 -0 0 0 1 3 3 3 2 2 2 2 2 1 1 1 1 1 1 1 1 0 0 0 0 0 0 0 -0 -0 0 0 0 0 1 1 1 1 1 1 1 2